EXS15NG EGBB-LEAM

Flight info

Callsign EXS15NG
Flight time 2h 25m
Altitude 37000
Route ADMEX Y321 CPT UN859 SOPIL DCT BALAN DCT LMG DCT PIMQO DCT AGN DCT ANETO DCT TURUV DCT GRAUS DCT LOBAR DCT SEROX N860 NARGO DCT RESTU N860 DOSEK
Aircraft B738/M-SDE2E3FGHIRWXY/LB1

Departure

Time 2026-05-06 11:59
Airport Birmingham Airport (EGBB)

Arrival

Time 2026-05-06 14:24
Airport Almería Airport (LEAM)
Time Latitude Longitude Altitude Speed Heading
2026-05-06 11:38 52.45015 -1.73377 323 ft 0 kts 326°
2026-05-06 11:51 52.45014 -1.73376 323 ft 1 kts 326°
2026-05-06 11:51 52.44998 -1.73359 323 ft 4 kts 320°
2026-05-06 11:51 52.44985 -1.73326 318 ft 4 kts 269°
2026-05-06 11:52 52.44993 -1.73286 321 ft 4 kts 236°
2026-05-06 11:52 52.44986 -1.73301 322 ft 4 kts 236°
2026-05-06 11:52 52.44980 -1.73316 321 ft 0 kts 236°
2026-05-06 11:54 52.44967 -1.73347 322 ft 7 kts 236°
2026-05-06 11:55 52.44922 -1.73457 323 ft 15 kts 236°
2026-05-06 11:55 52.44874 -1.73612 321 ft 15 kts 235°
2026-05-06 11:55 52.44791 -1.73700 321 ft 14 kts 196°
2026-05-06 11:55 52.44697 -1.73713 321 ft 14 kts 150°
2026-05-06 11:56 52.44620 -1.73623 323 ft 13 kts 144°
2026-05-06 11:56 52.44544 -1.73542 323 ft 13 kts 146°
2026-05-06 11:56 52.44471 -1.73461 323 ft 13 kts 146°
2026-05-06 11:56 52.44400 -1.73398 323 ft 10 kts 175°
2026-05-06 11:57 52.44366 -1.73443 322 ft 11 kts 236°
2026-05-06 11:57 52.44317 -1.73584 321 ft 8 kts 271°
2026-05-06 11:57 52.44346 -1.73648 324 ft 0 kts 327°
2026-05-06 11:57 52.44359 -1.73662 324 ft 5 kts 326°
2026-05-06 11:58 52.44418 -1.73728 323 ft 18 kts 326°
2026-05-06 11:58 52.44731 -1.74075 324 ft 91 kts 326°
2026-05-06 11:58 52.45429 -1.74856 329 ft 152 kts 328°
2026-05-06 11:58 52.46389 -1.75933 786 ft 175 kts 327°
2026-05-06 11:59 52.47401 -1.77077 1873 ft 173 kts 329°
2026-05-06 11:59 52.48343 -1.78111 3117 ft 154 kts 329°
2026-05-06 11:59 52.49262 -1.79119 3865 ft 164 kts 334°
2026-05-06 11:59 52.50317 -1.79769 4720 ft 163 kts 352°
2026-05-06 12:00 52.51446 -1.79751 5442 ft 170 kts 12°
2026-05-06 12:00 52.52633 -1.78962 5744 ft 200 kts 32°
2026-05-06 12:00 52.53667 -1.77231 5945 ft 229 kts 56°
2026-05-06 12:00 52.54145 -1.74653 5977 ft 246 kts 86°
2026-05-06 12:01 52.53828 -1.71846 5975 ft 253 kts 102°
2026-05-06 12:01 52.53374 -1.69052 5964 ft 253 kts 101°
2026-05-06 12:01 52.52628 -1.66460 5975 ft 263 kts 130°
2026-05-06 12:01 52.51258 -1.64306 6044 ft 279 kts 135°
2026-05-06 12:02 52.49830 -1.62081 6674 ft 286 kts 134°
2026-05-06 12:02 52.48400 -1.59803 7611 ft 287 kts 134°
2026-05-06 12:02 52.46941 -1.57453 8499 ft 292 kts 134°
2026-05-06 12:02 52.45432 -1.55274 9325 ft 297 kts 145°
2026-05-06 12:03 52.43663 -1.53486 10139 ft 303 kts 150°
2026-05-06 12:03 52.41769 -1.51716 10434 ft 327 kts 150°
2026-05-06 12:03 52.39726 -1.49767 10637 ft 351 kts 150°
2026-05-06 12:03 52.37559 -1.47654 10815 ft 375 kts 149°
2026-05-06 12:04 52.35166 -1.45805 11238 ft 386 kts 166°
2026-05-06 12:04 52.32523 -1.45015 12025 ft 386 kts 172°
2026-05-06 12:04 52.29868 -1.44335 12810 ft 389 kts 172°
2026-05-06 12:04 52.27176 -1.43627 13484 ft 395 kts 172°
2026-05-06 12:05 52.24460 -1.42892 14197 ft 397 kts 172°
2026-05-06 12:05 52.21724 -1.42135 14875 ft 400 kts 172°
2026-05-06 12:05 52.18964 -1.41364 15509 ft 404 kts 172°
2026-05-06 12:05 52.16188 -1.40583 16166 ft 407 kts 172°
2026-05-06 12:06 52.13388 -1.39796 16813 ft 410 kts 172°
2026-05-06 12:06 52.10576 -1.39006 17411 ft 414 kts 172°
2026-05-06 12:06 52.07721 -1.38205 18044 ft 417 kts 172°
2026-05-06 12:06 52.04852 -1.37400 18610 ft 420 kts 172°
2026-05-06 12:07 52.01961 -1.36591 19165 ft 422 kts 172°
2026-05-06 12:07 51.99059 -1.35780 19734 ft 424 kts 172°
2026-05-06 12:07 51.96137 -1.34966 20262 ft 427 kts 172°
2026-05-06 12:07 51.93211 -1.34151 20770 ft 430 kts 172°
2026-05-06 12:08 51.90240 -1.33324 21283 ft 432 kts 172°
2026-05-06 12:08 51.87261 -1.32496 21781 ft 435 kts 172°
2026-05-06 12:08 51.84268 -1.31665 22271 ft 437 kts 172°
2026-05-06 12:08 51.81283 -1.30837 22737 ft 440 kts 172°
2026-05-06 12:09 51.78240 -1.29993 23190 ft 443 kts 172°
2026-05-06 12:09 51.75175 -1.29145 23618 ft 446 kts 172°
2026-05-06 12:09 51.72112 -1.28298 23971 ft 448 kts 172°
2026-05-06 12:09 51.69022 -1.27445 24317 ft 451 kts 172°
2026-05-06 12:10 51.65921 -1.26590 24679 ft 453 kts 172°
2026-05-06 12:10 51.62800 -1.25731 25021 ft 455 kts 172°
2026-05-06 12:10 51.59694 -1.24877 25348 ft 458 kts 172°
2026-05-06 12:10 51.56532 -1.24008 25676 ft 460 kts 172°
2026-05-06 12:11 51.53372 -1.23142 25997 ft 462 kts 172°
2026-05-06 12:11 51.50198 -1.22207 26324 ft 465 kts 168°
2026-05-06 12:11 51.47115 -1.20660 26683 ft 468 kts 159°
2026-05-06 12:11 51.44167 -1.18416 27207 ft 466 kts 155°
2026-05-06 12:12 51.41269 -1.16152 27702 ft 464 kts 156°
2026-05-06 12:12 51.38346 -1.13950 28145 ft 463 kts 156°
2026-05-06 12:12 51.35429 -1.11810 28562 ft 463 kts 157°
2026-05-06 12:12 51.32487 -1.09671 28964 ft 463 kts 157°
2026-05-06 12:13 51.29568 -1.07546 29439 ft 461 kts 156°
2026-05-06 12:13 51.26654 -1.05421 29922 ft 460 kts 156°
2026-05-06 12:13 51.23749 -1.03301 30295 ft 459 kts 156°
2026-05-06 12:13 51.20904 -1.01230 30640 ft 459 kts 156°
2026-05-06 12:14 51.18013 -0.99130 31020 ft 457 kts 156°
2026-05-06 12:14 51.15121 -0.97034 31387 ft 457 kts 156°
2026-05-06 12:14 51.12223 -0.94934 31749 ft 456 kts 157°
2026-05-06 12:14 51.09360 -0.92863 32103 ft 455 kts 157°
2026-05-06 12:15 51.06476 -0.90778 32417 ft 455 kts 157°
2026-05-06 12:15 51.03594 -0.88698 32788 ft 454 kts 157°
2026-05-06 12:15 51.00727 -0.86632 33134 ft 453 kts 157°
2026-05-06 12:15 50.97861 -0.84569 33443 ft 453 kts 157°
2026-05-06 12:16 50.94995 -0.82508 33744 ft 453 kts 156°
2026-05-06 12:16 50.92125 -0.80447 34047 ft 452 kts 156°
2026-05-06 12:16 50.89251 -0.78386 34291 ft 452 kts 157°
2026-05-06 12:16 50.86391 -0.76336 34554 ft 452 kts 156°
2026-05-06 12:17 50.83616 -0.73985 34791 ft 453 kts 149°
2026-05-06 12:17 50.80951 -0.71321 35012 ft 453 kts 148°
2026-05-06 12:17 50.78319 -0.68588 35264 ft 453 kts 147°
2026-05-06 12:17 50.75686 -0.65834 35505 ft 453 kts 147°
2026-05-06 12:18 50.73057 -0.63099 35728 ft 453 kts 148°
2026-05-06 12:18 50.70425 -0.60387 35982 ft 452 kts 148°
2026-05-06 12:18 50.67782 -0.57686 36194 ft 452 kts 148°
2026-05-06 12:18 50.65139 -0.55003 36386 ft 453 kts 148°
2026-05-06 12:19 50.62488 -0.52321 36593 ft 453 kts 148°
2026-05-06 12:19 50.59840 -0.49650 36814 ft 452 kts 148°
2026-05-06 12:19 50.57192 -0.46983 36967 ft 451 kts 148°
2026-05-06 12:19 50.55444 -0.45223 36961 ft 452 kts 148°
2026-05-06 12:20 50.50130 -0.39885 36984 ft 453 kts 148°
2026-05-06 12:20 50.44829 -0.34570 36978 ft 452 kts 148°
2026-05-06 12:21 50.39873 -0.29614 36979 ft 452 kts 148°
2026-05-06 12:21 50.34576 -0.24331 36979 ft 451 kts 149°
2026-05-06 12:22 50.29646 -0.19428 36974 ft 451 kts 149°
2026-05-06 12:22 50.24354 -0.14177 36976 ft 450 kts 149°
2026-05-06 12:23 50.19428 -0.09301 36976 ft 450 kts 149°
2026-05-06 12:23 50.14141 -0.04080 36976 ft 449 kts 149°
2026-05-06 12:24 50.08671 0.00544 36969 ft 447 kts 161°
2026-05-06 12:24 50.02690 0.03038 36975 ft 445 kts 168°
2026-05-06 12:25 49.97069 0.05129 36975 ft 445 kts 168°
2026-05-06 12:25 49.91067 0.07429 36978 ft 445 kts 167°
2026-05-06 12:26 49.85052 0.09777 36973 ft 445 kts 167°
2026-05-06 12:26 49.78989 0.12145 36982 ft 453 kts 167°
2026-05-06 12:27 49.73191 0.14401 36981 ft 459 kts 167°
2026-05-06 12:27 49.66977 0.16818 36967 ft 462 kts 167°
2026-05-06 12:28 49.60750 0.19333 36966 ft 463 kts 166°
2026-05-06 12:28 49.54513 0.21876 36965 ft 464 kts 167°
2026-05-06 12:29 49.48600 0.24268 36965 ft 463 kts 166°
2026-05-06 12:29 49.42368 0.26779 36964 ft 463 kts 166°
2026-05-06 12:30 49.36148 0.29277 36962 ft 462 kts 166°
2026-05-06 12:30 49.29921 0.31776 36966 ft 462 kts 166°
2026-05-06 12:31 49.23735 0.34363 36961 ft 461 kts 165°
2026-05-06 12:31 49.17541 0.36988 36962 ft 461 kts 166°
2026-05-06 12:32 49.11404 0.39570 36957 ft 461 kts 166°
2026-05-06 12:32 49.05218 0.42157 36952 ft 461 kts 166°
2026-05-06 12:33 48.98992 0.44751 36955 ft 461 kts 166°
2026-05-06 12:33 48.92851 0.47304 36953 ft 461 kts 166°
2026-05-06 12:34 48.86621 0.49888 36952 ft 461 kts 166°
2026-05-06 12:34 48.80442 0.52445 36949 ft 461 kts 166°
2026-05-06 12:35 48.74281 0.54922 36949 ft 461 kts 166°
2026-05-06 12:35 48.68077 0.57325 36950 ft 461 kts 167°
2026-05-06 12:36 48.62272 0.59579 36951 ft 461 kts 166°
2026-05-06 12:36 48.56073 0.61993 36947 ft 461 kts 166°
2026-05-06 12:37 48.49870 0.64419 36951 ft 461 kts 166°
2026-05-06 12:37 48.43679 0.66942 36947 ft 461 kts 166°
2026-05-06 12:38 48.37901 0.69303 36955 ft 461 kts 166°
2026-05-06 12:38 48.31711 0.71812 36950 ft 461 kts 166°
2026-05-06 12:39 48.25514 0.74312 36947 ft 461 kts 166°
2026-05-06 12:39 48.19320 0.76771 36955 ft 461 kts 166°
2026-05-06 12:40 48.13527 0.79043 36946 ft 461 kts 166°
2026-05-06 12:40 48.07321 0.81475 36947 ft 460 kts 166°
2026-05-06 12:41 48.01132 0.83899 36945 ft 460 kts 166°
2026-05-06 12:41 47.94951 0.86316 36942 ft 460 kts 166°
2026-05-06 12:42 47.88767 0.88728 36942 ft 460 kts 167°
2026-05-06 12:42 47.82579 0.91134 36941 ft 459 kts 166°
2026-05-06 12:43 47.76394 0.93528 36934 ft 459 kts 167°
2026-05-06 12:43 47.70198 0.95920 36934 ft 459 kts 167°
2026-05-06 12:44 47.64467 0.98129 36936 ft 459 kts 167°
2026-05-06 12:44 47.58281 1.00508 36937 ft 459 kts 167°
2026-05-06 12:45 47.52499 1.02727 36933 ft 459 kts 167°
2026-05-06 12:46 47.43203 1.06129 36927 ft 459 kts 172°
2026-05-06 12:46 47.37275 1.06459 36942 ft 456 kts 182°
2026-05-06 12:47 47.30925 1.06198 36933 ft 457 kts 182°
2026-05-06 12:47 47.24569 1.05989 36933 ft 457 kts 182°
2026-05-06 12:48 47.18202 1.05840 36932 ft 458 kts 182°
2026-05-06 12:48 47.11824 1.05704 36924 ft 458 kts 182°
2026-05-06 12:49 47.05448 1.05563 36921 ft 459 kts 182°
2026-05-06 12:49 46.99065 1.05386 36920 ft 459 kts 182°
2026-05-06 12:50 46.92684 1.05096 36906 ft 459 kts 183°
2026-05-06 12:50 46.86726 1.04818 36912 ft 459 kts 182°
2026-05-06 12:51 46.80344 1.04534 36914 ft 460 kts 183°
2026-05-06 12:51 46.73931 1.04257 36903 ft 460 kts 182°
2026-05-06 12:52 46.67524 1.03982 36893 ft 460 kts 182°
2026-05-06 12:52 46.61128 1.03708 36908 ft 459 kts 182°
2026-05-06 12:53 46.54730 1.03434 36902 ft 460 kts 182°
2026-05-06 12:53 46.48342 1.03208 36901 ft 459 kts 181°
2026-05-06 12:54 46.41948 1.03157 36905 ft 460 kts 181°
2026-05-06 12:54 46.35531 1.03126 36895 ft 460 kts 181°
2026-05-06 12:55 46.29175 1.03075 36902 ft 460 kts 181°
2026-05-06 12:55 46.22789 1.03012 36899 ft 459 kts 181°
2026-05-06 12:56 46.16401 1.02946 36909 ft 459 kts 181°
2026-05-06 12:56 46.10052 1.02882 36909 ft 460 kts 181°
2026-05-06 12:57 46.03654 1.02818 36903 ft 459 kts 181°
2026-05-06 12:57 45.97259 1.02755 36909 ft 459 kts 181°
2026-05-06 12:58 45.90869 1.02692 36914 ft 459 kts 181°
2026-05-06 12:58 45.84485 1.02628 36909 ft 459 kts 182°
2026-05-06 12:59 45.78118 1.03318 36920 ft 460 kts 172°
2026-05-06 12:59 45.71827 1.04997 36913 ft 461 kts 171°
2026-05-06 13:00 45.65529 1.06697 36908 ft 460 kts 171°
2026-05-06 13:00 45.59231 1.08333 36897 ft 460 kts 171°
2026-05-06 13:01 45.52922 1.09940 36913 ft 461 kts 172°
2026-05-06 13:01 45.46780 1.11498 36901 ft 461 kts 172°
2026-05-06 13:02 45.40463 1.13100 36914 ft 461 kts 172°
2026-05-06 13:02 45.34156 1.14697 36908 ft 461 kts 172°
2026-05-06 13:03 45.28858 1.16036 36908 ft 461 kts 172°
2026-05-06 13:03 45.22585 1.17618 36916 ft 461 kts 172°
2026-05-06 13:04 45.16246 1.18894 36909 ft 459 kts 181°
2026-05-06 13:04 45.09915 1.17941 36923 ft 454 kts 192°
2026-05-06 13:05 45.03738 1.16264 36916 ft 455 kts 193°
2026-05-06 13:05 44.97785 1.14672 36915 ft 455 kts 193°
2026-05-06 13:06 44.91560 1.13060 36917 ft 455 kts 192°
2026-05-06 13:06 44.85705 1.11566 36909 ft 455 kts 192°
2026-05-06 13:07 44.79471 1.09983 36917 ft 455 kts 192°
2026-05-06 13:07 44.73249 1.08405 36917 ft 454 kts 192°
2026-05-06 13:08 44.67021 1.06828 36914 ft 455 kts 192°
2026-05-06 13:08 44.60799 1.05255 36923 ft 454 kts 192°
2026-05-06 13:09 44.54587 1.03688 36920 ft 454 kts 192°
2026-05-06 13:09 44.48367 1.02123 36923 ft 453 kts 193°
2026-05-06 13:10 44.42153 1.00563 36947 ft 454 kts 193°
2026-05-06 13:10 44.36350 0.99108 36925 ft 456 kts 193°
2026-05-06 13:11 44.30105 0.97547 36923 ft 454 kts 193°
2026-05-06 13:11 44.23893 0.95998 36935 ft 453 kts 193°
2026-05-06 13:12 44.17702 0.94456 36942 ft 451 kts 193°
2026-05-06 13:12 44.11490 0.92912 36929 ft 450 kts 193°
2026-05-06 13:13 44.05361 0.91392 36928 ft 450 kts 193°
2026-05-06 13:13 43.99192 0.89865 36935 ft 450 kts 193°
2026-05-06 13:14 43.93039 0.88346 36932 ft 449 kts 193°
2026-05-06 13:14 43.86899 0.86820 36934 ft 448 kts 193°
2026-05-06 13:15 43.80793 0.85190 36945 ft 447 kts 194°
2026-05-06 13:15 43.74691 0.83533 36951 ft 446 kts 194°
2026-05-06 13:16 43.68559 0.81881 36949 ft 445 kts 194°
2026-05-06 13:16 43.62485 0.80257 36952 ft 445 kts 194°
2026-05-06 13:17 43.56406 0.78638 36953 ft 445 kts 194°
2026-05-06 13:17 43.50328 0.77024 36960 ft 445 kts 194°
2026-05-06 13:18 43.44249 0.75412 36957 ft 445 kts 194°
2026-05-06 13:18 43.38172 0.73804 36957 ft 445 kts 194°
2026-05-06 13:19 43.32090 0.72197 36957 ft 445 kts 194°
2026-05-06 13:19 43.26018 0.70597 36959 ft 444 kts 194°
2026-05-06 13:20 43.19947 0.69000 36959 ft 444 kts 195°
2026-05-06 13:20 43.13887 0.67410 36961 ft 444 kts 195°
2026-05-06 13:21 43.07821 0.65820 36960 ft 443 kts 195°
2026-05-06 13:21 43.02181 0.64346 36959 ft 443 kts 195°
2026-05-06 13:22 42.96120 0.62764 36951 ft 443 kts 195°
2026-05-06 13:22 42.90089 0.61196 36958 ft 441 kts 195°
2026-05-06 13:23 42.84044 0.59621 36936 ft 441 kts 195°
2026-05-06 13:23 42.78461 0.58173 36969 ft 436 kts 195°
2026-05-06 13:24 42.72490 0.56625 36946 ft 438 kts 195°
2026-05-06 13:24 42.66915 0.55186 36935 ft 439 kts 195°
2026-05-06 13:25 42.60906 0.53648 36923 ft 441 kts 195°
2026-05-06 13:25 42.54853 0.52101 36918 ft 442 kts 195°
2026-05-06 13:26 42.48807 0.50558 36907 ft 442 kts 195°
2026-05-06 13:26 42.43161 0.49119 36898 ft 442 kts 195°
2026-05-06 13:27 42.37116 0.47581 36897 ft 442 kts 195°
2026-05-06 13:27 42.31130 0.46055 36896 ft 440 kts 195°
2026-05-06 13:28 42.25080 0.44509 36894 ft 439 kts 195°
2026-05-06 13:28 42.19083 0.42979 36902 ft 439 kts 195°
2026-05-06 13:29 42.13098 0.41456 36911 ft 438 kts 195°
2026-05-06 13:29 42.07113 0.39936 36902 ft 437 kts 195°
2026-05-06 13:30 42.01141 0.38421 36921 ft 436 kts 195°
2026-05-06 13:30 41.95209 0.36922 36934 ft 436 kts 195°
2026-05-06 13:31 41.89252 0.35425 36942 ft 435 kts 195°
2026-05-06 13:31 41.83694 0.34030 36953 ft 435 kts 195°
2026-05-06 13:32 41.77788 0.32549 36950 ft 434 kts 195°
2026-05-06 13:32 41.71858 0.31068 36950 ft 434 kts 195°
2026-05-06 13:33 41.65923 0.29599 36956 ft 433 kts 195°
2026-05-06 13:33 41.59998 0.28134 36946 ft 433 kts 195°
2026-05-06 13:34 41.54070 0.26669 36943 ft 433 kts 195°
2026-05-06 13:34 41.48153 0.25209 36940 ft 432 kts 195°
2026-05-06 13:35 41.42240 0.23753 36940 ft 432 kts 195°
2026-05-06 13:35 41.36718 0.22396 36932 ft 432 kts 195°
2026-05-06 13:36 41.30807 0.20923 36941 ft 432 kts 196°
2026-05-06 13:36 41.25908 0.19678 36939 ft 432 kts 196°
2026-05-06 13:37 41.19409 0.18075 36940 ft 431 kts 195°
2026-05-06 13:37 41.13511 0.16624 36942 ft 430 kts 196°
2026-05-06 13:38 41.08134 0.14684 36943 ft 426 kts 202°
2026-05-06 13:38 41.02482 0.12334 36961 ft 426 kts 202°
2026-05-06 13:39 40.97198 0.10184 36939 ft 426 kts 202°
2026-05-06 13:39 40.91564 0.07936 36956 ft 426 kts 202°
2026-05-06 13:40 40.85892 0.05679 36951 ft 425 kts 202°
2026-05-06 13:40 40.80234 0.03404 36953 ft 425 kts 202°
2026-05-06 13:41 40.74584 0.01128 36954 ft 425 kts 202°
2026-05-06 13:41 40.68919 -0.01148 36954 ft 425 kts 202°
2026-05-06 13:42 40.63664 -0.03254 36949 ft 424 kts 202°
2026-05-06 13:42 40.58019 -0.05513 36950 ft 424 kts 202°
2026-05-06 13:43 40.52358 -0.07765 36962 ft 425 kts 202°
2026-05-06 13:43 40.46689 -0.10002 36953 ft 426 kts 202°
2026-05-06 13:44 40.42357 -0.11708 36961 ft 425 kts 202°
2026-05-06 13:44 40.36697 -0.13937 36957 ft 425 kts 202°
2026-05-06 13:45 40.31030 -0.16167 36959 ft 425 kts 202°
2026-05-06 13:45 40.22546 -0.19502 36958 ft 424 kts 202°
2026-05-06 13:46 40.16869 -0.21747 36962 ft 423 kts 202°
2026-05-06 13:46 40.11232 -0.23975 36962 ft 423 kts 202°
2026-05-06 13:47 40.05597 -0.26197 36959 ft 423 kts 202°
2026-05-06 13:47 39.99989 -0.28403 36951 ft 422 kts 202°
2026-05-06 13:48 39.94353 -0.30581 36957 ft 422 kts 202°
2026-05-06 13:48 39.88726 -0.32740 36965 ft 420 kts 202°
2026-05-06 13:49 39.83170 -0.34900 36957 ft 419 kts 202°
2026-05-06 13:49 39.77956 -0.36934 36949 ft 420 kts 202°
2026-05-06 13:50 39.72316 -0.39126 36948 ft 420 kts 202°
2026-05-06 13:50 39.66891 -0.41230 36954 ft 422 kts 202°
2026-05-06 13:51 39.61456 -0.43335 36935 ft 423 kts 202°
2026-05-06 13:51 39.55807 -0.45519 36934 ft 423 kts 202°
2026-05-06 13:52 39.50199 -0.47686 36939 ft 422 kts 203°
2026-05-06 13:52 39.44916 -0.50765 36944 ft 414 kts 213°
2026-05-06 13:53 39.39863 -0.54344 36935 ft 414 kts 213°
2026-05-06 13:53 39.34799 -0.57897 36944 ft 414 kts 213°
2026-05-06 13:54 39.29718 -0.61430 36946 ft 414 kts 213°
2026-05-06 13:54 39.24645 -0.64945 36948 ft 414 kts 213°
2026-05-06 13:55 39.19911 -0.68220 36954 ft 414 kts 213°
2026-05-06 13:55 39.14831 -0.71728 36951 ft 414 kts 213°
2026-05-06 13:56 39.10103 -0.74992 36944 ft 413 kts 213°
2026-05-06 13:56 39.05033 -0.78483 36943 ft 413 kts 212°
2026-05-06 13:57 39.00315 -0.81729 36946 ft 412 kts 212°
2026-05-06 13:57 38.95253 -0.85209 36943 ft 412 kts 212°
2026-05-06 13:58 38.90535 -0.88447 36936 ft 412 kts 212°
2026-05-06 13:58 38.85480 -0.91913 36933 ft 412 kts 212°
2026-05-06 13:59 38.80434 -0.95366 36935 ft 411 kts 212°
2026-05-06 13:59 38.75381 -0.98819 36936 ft 411 kts 212°
2026-05-06 14:00 38.70331 -1.02262 36936 ft 411 kts 212°
2026-05-06 14:00 38.65310 -1.05679 36938 ft 411 kts 212°
2026-05-06 14:01 38.60561 -1.08908 36933 ft 412 kts 212°
2026-05-06 14:01 38.55499 -1.12344 36930 ft 412 kts 212°
2026-05-06 14:02 38.50814 -1.15520 36928 ft 412 kts 212°
2026-05-06 14:02 38.45743 -1.18952 36919 ft 412 kts 212°
2026-05-06 14:03 38.40659 -1.22390 36304 ft 417 kts 212°
2026-05-06 14:03 38.38106 -1.24113 35812 ft 414 kts 212°
2026-05-06 14:03 38.35569 -1.25822 35316 ft 409 kts 212°
2026-05-06 14:04 38.33070 -1.27504 34828 ft 406 kts 212°
2026-05-06 14:04 38.30576 -1.29183 34351 ft 405 kts 212°
2026-05-06 14:04 38.28086 -1.30858 33866 ft 404 kts 213°
2026-05-06 14:04 38.25614 -1.32521 33315 ft 402 kts 212°
2026-05-06 14:05 38.23496 -1.33946 32871 ft 407 kts 212°
2026-05-06 14:05 38.20938 -1.35667 32342 ft 414 kts 212°
2026-05-06 14:05 38.18375 -1.37390 31836 ft 419 kts 212°
2026-05-06 14:05 38.15787 -1.39125 31325 ft 420 kts 212°
2026-05-06 14:06 38.13236 -1.40832 30807 ft 421 kts 212°
2026-05-06 14:06 38.10611 -1.42587 30318 ft 422 kts 212°
2026-05-06 14:06 38.08001 -1.44332 29663 ft 426 kts 212°
2026-05-06 14:06 38.05362 -1.46096 28964 ft 429 kts 211°
2026-05-06 14:07 38.02715 -1.47863 28296 ft 432 kts 211°
2026-05-06 14:07 38.00052 -1.49639 27635 ft 434 kts 211°
2026-05-06 14:07 37.97368 -1.51428 26988 ft 435 kts 211°
2026-05-06 14:07 37.94690 -1.53212 26352 ft 437 kts 211°
2026-05-06 14:08 37.92001 -1.55000 25733 ft 435 kts 211°
2026-05-06 14:08 37.89331 -1.56766 25108 ft 428 kts 211°
2026-05-06 14:08 37.86705 -1.58477 24515 ft 422 kts 210°
2026-05-06 14:08 37.84099 -1.60164 23935 ft 420 kts 210°
2026-05-06 14:09 37.81507 -1.61840 23338 ft 418 kts 210°
2026-05-06 14:09 37.78932 -1.63505 22659 ft 416 kts 210°
2026-05-06 14:09 37.76356 -1.65170 21998 ft 414 kts 210°
2026-05-06 14:09 37.73797 -1.66826 21355 ft 412 kts 210°
2026-05-06 14:10 37.71465 -1.68334 20764 ft 411 kts 210°
2026-05-06 14:10 37.69050 -1.69895 20176 ft 410 kts 210°
2026-05-06 14:10 37.66512 -1.71535 19553 ft 408 kts 210°
2026-05-06 14:10 37.63993 -1.73161 18957 ft 406 kts 210°
2026-05-06 14:11 37.61481 -1.74782 18371 ft 404 kts 209°
2026-05-06 14:11 37.58992 -1.76386 17730 ft 402 kts 209°
2026-05-06 14:11 37.56506 -1.77987 17069 ft 399 kts 209°
2026-05-06 14:11 37.54036 -1.79577 16414 ft 397 kts 209°
2026-05-06 14:12 37.51586 -1.81153 15785 ft 395 kts 209°
2026-05-06 14:12 37.49154 -1.82716 15173 ft 393 kts 209°
2026-05-06 14:12 37.46716 -1.84282 14578 ft 391 kts 209°
2026-05-06 14:12 37.44297 -1.85834 13980 ft 389 kts 209°
2026-05-06 14:13 37.41915 -1.87361 13338 ft 377 kts 209°
2026-05-06 14:13 37.39618 -1.88831 12665 ft 363 kts 209°
2026-05-06 14:13 37.37409 -1.90244 12023 ft 350 kts 209°
2026-05-06 14:13 37.35272 -1.91612 11409 ft 341 kts 209°
2026-05-06 14:14 37.33189 -1.92945 10785 ft 333 kts 209°
2026-05-06 14:14 37.31419 -1.94079 10259 ft 327 kts 209°
2026-05-06 14:14 37.29412 -1.95363 9631 ft 321 kts 209°
2026-05-06 14:14 37.27436 -1.96620 9002 ft 316 kts 207°
2026-05-06 14:15 37.25425 -1.97674 8358 ft 312 kts 202°
2026-05-06 14:15 37.23411 -1.98632 7728 ft 308 kts 202°
2026-05-06 14:15 37.21424 -1.99571 7291 ft 299 kts 201°
2026-05-06 14:15 37.19507 -2.00477 6924 ft 290 kts 202°
2026-05-06 14:16 37.17649 -2.01350 6549 ft 282 kts 201°
2026-05-06 14:16 37.15827 -2.02192 6186 ft 278 kts 201°
2026-05-06 14:16 37.14016 -2.03031 5816 ft 279 kts 200°
2026-05-06 14:16 37.12195 -2.03883 5435 ft 279 kts 200°
2026-05-06 14:17 37.10372 -2.04744 5056 ft 280 kts 200°
2026-05-06 14:17 37.08555 -2.05614 4701 ft 280 kts 200°
2026-05-06 14:17 37.06731 -2.06500 4334 ft 281 kts 200°
2026-05-06 14:17 37.04913 -2.07400 4045 ft 278 kts 200°
2026-05-06 14:18 37.03157 -2.08282 3989 ft 265 kts 201°
2026-05-06 14:18 37.01488 -2.09127 3983 ft 252 kts 201°
2026-05-06 14:18 36.99900 -2.09934 3986 ft 241 kts 201°
2026-05-06 14:18 36.98392 -2.10707 3981 ft 228 kts 201°
2026-05-06 14:19 36.96963 -2.11438 3982 ft 216 kts 201°
2026-05-06 14:19 36.95612 -2.12129 3977 ft 204 kts 201°
2026-05-06 14:19 36.94332 -2.12781 3977 ft 198 kts 201°
2026-05-06 14:19 36.93048 -2.13435 3871 ft 199 kts 200°
2026-05-06 14:20 36.91768 -2.14089 3722 ft 199 kts 200°
2026-05-06 14:20 36.90506 -2.14794 3456 ft 201 kts 213°
2026-05-06 14:20 36.89707 -2.16183 3230 ft 199 kts 248°
2026-05-06 14:20 36.89185 -2.17804 2943 ft 201 kts 247°
2026-05-06 14:21 36.88709 -2.19451 2680 ft 202 kts 250°
2026-05-06 14:21 36.88343 -2.20899 2445 ft 199 kts 251°
2026-05-06 14:21 36.87947 -2.22515 2197 ft 191 kts 251°
2026-05-06 14:21 36.87558 -2.24097 1949 ft 191 kts 251°
2026-05-06 14:22 36.87181 -2.25644 1719 ft 184 kts 252°
2026-05-06 14:22 36.86866 -2.26924 1466 ft 174 kts 250°
2026-05-06 14:22 36.86528 -2.28297 1253 ft 156 kts 251°
2026-05-06 14:22 36.86328 -2.29124 1170 ft 141 kts 248°
2026-05-06 14:23 36.85969 -2.30629 886 ft 138 kts 249°
2026-05-06 14:23 36.85823 -2.31253 840 ft 139 kts 250°
2026-05-06 14:23 36.85539 -2.32429 626 ft 142 kts 248°
2026-05-06 14:23 36.85231 -2.33603 381 ft 141 kts 248°
2026-05-06 14:24 36.84964 -2.34760 177 ft 134 kts 247°
2026-05-06 14:24 36.84691 -2.35811 59 ft 117 kts 247°
2026-05-06 14:24 36.84486 -2.36636 57 ft 78 kts 253°
2026-05-06 14:24 36.84374 -2.37088 56 ft 41 kts 253°
2026-05-06 14:25 36.84297 -2.37407 61 ft 36 kts 253°
2026-05-06 14:25 36.84238 -2.37652 63 ft 22 kts 253°
2026-05-06 14:25 36.84200 -2.37831 58 ft 21 kts 262°
2026-05-06 14:25 36.84200 -2.38002 62 ft 16 kts 280°
2026-05-06 14:26 36.84222 -2.38146 55 ft 13 kts 281°
2026-05-06 14:26 36.84256 -2.38207 61 ft 6 kts 342°
2026-05-06 14:26 36.84261 -2.38207 62 ft 0 kts
2026-05-06 14:26 36.84284 -2.38175 62 ft 11 kts 62°
2026-05-06 14:27 36.84311 -2.38064 61 ft 13 kts 72°
2026-05-06 14:27 36.84333 -2.37976 65 ft 9 kts 72°
2026-05-06 14:27 36.84362 -2.37913 64 ft 8 kts 27°
2026-05-06 14:27 36.84419 -2.37914 62 ft 8 kts 347°
2026-05-06 14:28 36.84471 -2.37903 62 ft 8 kts 34°
2026-05-06 14:28 36.84482 -2.37890 68 ft 1 kts 56°
2026-05-06 14:28 36.84486 -2.37871 63 ft 6 kts 75°
2026-05-06 14:28 36.84500 -2.37812 64 ft 12 kts 72°
2026-05-06 14:29 36.84519 -2.37735 67 ft 16 kts 74°
2026-05-06 14:29 36.84554 -2.37593 61 ft 13 kts 73°
2026-05-06 14:29 36.84547 -2.37532 64 ft 6 kts 119°
2026-05-06 14:29 36.84531 -2.37472 67 ft 10 kts 84°
2026-05-06 14:30 36.84553 -2.37387 60 ft 10 kts 75°
2026-05-06 14:30 36.84576 -2.37291 65 ft 10 kts 74°
2026-05-06 14:30 36.84600 -2.37194 61 ft 8 kts 72°
2026-05-06 14:30 36.84633 -2.37172 67 ft 7 kts 342°
2026-05-06 14:31 36.84661 -2.37183 60 ft 4 kts 343°
2026-05-06 14:31 36.84682 -2.37190 66 ft 2 kts 355°
2026-05-06 14:31 36.84688 -2.37187 66 ft 1 kts 22°
2026-05-06 14:31 36.84691 -2.37182 65 ft 1 kts 48°
2026-05-06 14:32 36.84692 -2.37170 67 ft 2 kts 91°
2026-05-06 14:32 36.84689 -2.37162 66 ft 1 kts 130°
2026-05-06 14:32 36.84675 -2.37152 64 ft 0 kts 153°